FW2689 Weather Reports


time (UTC)temp
F
wind
direction
speed
knots
gust
knots
rain 1hr
in
rain 24hr
in
rain mn
in
humidity
%
barometer
mb
20260503013912 80 165 0.0 0.0 0.00 0.00 0.00 88 1011.6
20260503013853 80 169 0.0 0.9 0.00 0.00 0.00 88 1011.5
20260503012842 80 165 0.0 0.9 0.00 0.00 0.00 88 1011.5
20260503012341 80 169 0.0 0.9 0.00 0.00 0.00 88 1011.5
20260503012044 80 165 0.0 0.0 0.00 0.00 0.00 88 1011.5
20260503011311 80 167 0.0 0.0 0.00 0.00 0.00 87 1011.5
20260503010804 80 169 0.0 0.9 0.00 0.00 0.00 87 1011.5
20260503010234 80 169 0.0 0.9 0.00 0.00 0.00 87 1011.5
20260503005734 80 169 0.0 0.0 0.00 0.00 0.00 87 1011.6
20260503005204 80 167 0.0 0.0 0.00 0.00 0.00 87 1011.5
20260503004703 80 169 0.0 0.0 0.00 0.00 0.00 87 1011.6
20260503004134 81 167 0.0 0.0 0.00 0.00 0.00 87 1011.5
20260503003633 81 169 0.0 0.0 0.00 0.00 0.00 86 1011.5
20260503003106 81 167 0.0 0.9 0.00 0.00 0.00 86 1011.6
20260503002604 81 169 0.0 0.9 0.00 0.00 0.00 86 1011.6
20260503002035 81 168 0.0 0.9 0.00 0.00 0.00 86 1011.6
20260503001532 81 169 0.0 0.0 0.00 0.00 0.00 86 1011.6
20260503001034 81 165 0.0 0.0 0.00 0.00 0.00 86 1011.6
20260503000747 81 186 0.0 0.0 0.00 0.00 0.00 86 1011.5
20260503000240 82 167 0.0 0.0 0.00 0.00 0.00 86 1011.4
20260502235447 82 167 0.0 0.9 0.00 0.00 0.00 85 1011.4
20260502234948 82 167 0.0 0.9 0.00 0.00 0.00 85 1011.4
20260502234421 82 167 0.0 0.0 0.00 0.00 0.00 85 1011.2
20260502233851 82 186 0.0 0.0 0.00 0.00 0.00 85 1011.1
20260502233353 82 167 0.0 0.0 0.00 0.00 0.00 85 1011.1
20260502232823 83 168 0.0 0.0 0.00 0.00 0.00 85 1011.0
20260502232325 83 167 0.0 0.0 0.00 0.00 0.00 85 1011.0
20260502232011 83 167 0.0 0.0 0.00 0.00 0.00 85 1010.9
20260502231255 83 167 0.0 0.9 0.00 0.00 0.00 85 1010.7
20260502230723 83 168 0.0 0.9 0.00 0.00 0.00 85 1010.6
20260502230444 83 167 0.0 0.9 0.00 0.00 0.00 85 1010.5
20260502225657 83 167 0.0 0.0 0.00 0.00 0.00 85 1010.4
20260502225130 83 167 0.0 2.6 0.00 0.00 0.00 85 1010.2
20260502224626 83 168 0.0 2.6 0.00 0.00 0.00 85 1010.3
20260502224103 83 168 0.0 0.9 0.00 0.00 0.00 85 1010.2
20260502223534 83 166 0.0 2.6 0.00 0.00 0.00 85 1010.3
20260502223034 83 167 0.0 2.6 0.00 0.00 0.00 85 1010.2
20260502222504 84 166 0.0 2.6 0.00 0.00 0.00 85 1010.2
20260502222004 84 168 0.0 2.6 0.00 0.00 0.00 85 1010.1
20260502221433 84 166 0.0 0.9 0.00 0.00 0.00 85 1010.1
20260502220936 84 168 0.0 2.6 0.00 0.00 0.00 85 1010.1
20260502220630 84 168 0.0 2.6 0.00 0.00 0.00 85 1010.1
20260502215839 84 65 0.0 1.7 0.00 0.00 0.00 85 1010.0
20260502215605 84 60 0.0 0.9 0.00 0.00 0.00 85 1010.0
20260502214813 84 60 0.0 0.9 0.00 0.00 0.00 85 1010.0
20260502214244 84 60 0.0 0.9 0.00 0.00 0.00 85 1009.9
20260502214013 84 60 0.0 0.9 0.00 0.00 0.00 86 1009.8
20260502213443 84 60 0.0 0.9 0.00 0.00 0.00 86 1010.0
20260502212712 84 59 0.0 0.9 0.00 0.00 0.00 86 1009.9
20260502212439 84 66 0.0 0.9 0.00 0.00 0.00 86 1009.9
20260502211713 84 60 0.0 0.0 0.00 0.00 0.00 86 1009.9
20260502211159 84 61 0.0 0.0 0.00 0.00 0.00 86 1009.9
20260502210700 84 60 0.0 0.0 0.00 0.00 0.00 86 1009.8
20260502210139 84 59 0.0 0.9 0.00 0.00 0.00 87 1009.9
20260502205611 84 60 0.0 0.9 0.00 0.00 0.00 87 1009.8
20260502205341 83 61 0.0 0.9 0.00 0.00 0.00 87 1009.8
20260502204549 83 59 0.0 0.9 0.00 0.00 0.00 87 1009.8
20260502204022 83 66 0.0 0.9 0.00 0.00 0.00 86 1009.8
20260502203939 83 66 0.0 0.9 0.00 0.00 0.00 87 1009.9
20260502202931 83 59 0.0 0.9 0.00 0.00 0.00 85 1009.9
20260502202653 84 60 0.0 0.9 0.00 0.00 0.00 85 1010.0
20260502201932 84 66 0.0 0.9 0.00 0.00 0.00 85 1009.8
20260502201928 84 60 0.0 0.9 0.00 0.00 0.00 86 1009.8
20260502200903 84 60 0.0 0.9 0.00 0.00 0.00 84 1010.0
20260502200404 83 60 0.0 0.9 0.00 0.00 0.00 83 1010.0
20260502195844 84 66 0.0 0.9 0.00 0.00 0.00 84 1010.0
20260502195325 84 60 0.0 0.9 0.00 0.00 0.00 85 1009.8
20260502194821 83 67 0.0 0.9 0.00 0.00 0.00 86 1009.9
20260502194527 83 60 0.0 0.9 0.00 0.00 0.00 86 1010.0
20260502193740 83 60 0.0 0.9 0.00 0.00 0.00 86 1010.1
20260502193219 84 59 0.0 0.9 0.00 0.00 0.00 87 1010.1
20260502192723 84 161 0.0 0.9 0.00 0.00 0.00 88 1010.1
20260502192219 84 153 0.0 0.9 0.00 0.00 0.00 88 1010.1
20260502191720 84 153 0.0 0.9 0.00 0.00 0.00 87 1010.1
20260502191151 84 154 0.0 0.9 0.00 0.00 0.00 87 1010.2
20260502190646 84 154 0.0 0.9 0.00 0.00 0.00 89 1010.2
20260502190141 84 153 0.0 0.9 0.00 0.00 0.00 87 1010.1
20260502185648 84 155 0.9 0.9 0.00 0.00 0.00 88 1010.3
20260502185345 84 171 0.9 1.7 0.00 0.00 0.00 87 1010.4
20260502184625 84 155 0.0 1.7 0.00 0.00 0.00 87 1010.5
20260502184117 84 155 0.0 0.9 0.00 0.00 0.00 88 1010.6
20260502183617 84 153 0.0 0.9 0.00 0.00 0.00 88 1010.8
20260502183119 84 154 0.0 0.9 0.00 0.00 0.00 88 1010.9
20260502182619 84 173 0.0 0.9 0.00 0.00 0.00 88 1010.9
20260502182120 84 154 0.0 1.7 0.00 0.00 0.00 88 1010.9
20260502181822 84 172 0.0 1.7 0.00 0.00 0.00 87 1011.3
20260502181056 84 153 0.9 1.7 0.00 0.00 0.00 87 1011.1
20260502180556 85 153 0.9 1.7 0.00 0.00 0.00 86 1011.3
20260502170409 83 182 0.0 0.9 0.00 0.00 0.00 88 1011.8
20260502164309 85 155 0.0 1.7 0.00 0.00 0.00 85 1012.2
20260502163755 86 155 0.9 1.7 0.00 0.00 0.00 84 1012.2
20260502163259 87 154 0.0 1.7 0.00 0.00 0.00 85 1012.2
20260502162739 85 200 0.0 0.9 0.00 0.00 0.00 83 1012.1
20260502162241 85 178 0.0 1.7 0.00 0.00 0.00 83 1012.2
20260502161743 85 199 0.0 1.7 0.00 0.00 0.00 84 1012.3
20260502161225 84 200 0.0 0.9 0.00 0.00 0.00 84 1012.3
20260502160725 84 177 0.0 0.9 0.00 0.00 0.00 83 1012.2
20260502160203 84 178 0.0 0.9 0.00 0.00 0.00 84 1012.2
20260502151949 85 200 0.9 1.7 0.00 0.00 0.00 80 1011.6
20260502151642 85 199 0.9 1.7 0.00 0.00 0.00 79 1011.8
20260502150859 84 178 0.9 1.7 0.00 0.00 0.00 79 1011.7
20260502150626 84 200 0.0 1.7 0.00 0.00 0.00 80 1011.6
20260502130509 77 182 0.9 2.6 0.00 0.00 0.00 94 1010.3
20260502123327 76 179 0.0 0.9 0.00 0.00 0.00 94 1010.2
20260502122825 76 200 0.0 0.9 0.00 0.00 0.00 94 1010.1
20260502122550 75 182 0.0 1.7 0.00 0.00 0.00 94 1010.1
20260502121829 75 183 0.0 1.7 0.00 0.00 0.00 94 1010.1
20260502121535 75 0.0 0.0 0.00 0.00 0.00 94 1010.0
20260502120745 75 0.0 0.0 0.00 0.00 0.00 94 1009.9
20260502120423 75 0.0 0.0 0.00 0.00 0.00 94 1009.8
20260502115702 75 0.0 0.0 0.00 0.00 0.00 94 1009.6
20260502115201 75 0.0 0.0 0.00 0.00 0.00 94 1009.7
20260502114635 75 0.0 0.0 0.00 0.00 0.00 94 1009.8
20260502114108 75 0.0 0.0 0.00 0.00 0.00 94 1009.9
20260502113553 75 0.0 0.0 0.00 0.00 0.00 94 1010.2
20260502113035 75 0.0 0.0 0.00 0.00 0.00 94 1010.2
20260502112538 75 0.0 0.0 0.00 0.00 0.00 94 1010.2
20260502112012 75 0.0 0.0 0.00 0.00 0.00 94 1010.2
20260502111514 75 0.0 0.0 0.00 0.00 0.00 94 1010.2
20260502111012 75 0.0 0.0 0.00 0.00 0.00 94 1010.1
20260502110459 75 0.0 0.0 0.00 0.00 0.00 94 1010.0
20260502105957 75 0.0 0.0 0.00 0.00 0.00 93 1009.9
20260502105457 75 0.0 0.0 0.00 0.00 0.00 93 1009.8
20260502104936 75 0.0 0.0 0.00 0.00 0.00 93 1009.7
20260502104433 75 0.0 0.0 0.00 0.00 0.00 93 1009.6
20260502103912 75 0.0 0.0 0.00 0.00 0.00 93 1009.4
20260502103408 75 0.0 0.0 0.00 0.00 0.00 93 1009.4
20260502102853 76 0.0 0.0 0.00 0.00 0.00 93 1009.2
20260502102323 76 0.0 0.0 0.00 0.00 0.00 93 1009.1
20260502101809 76 0.0 0.0 0.00 0.00 0.00 93 1009.1
20260502101438 76 0.0 0.0 0.00 0.00 0.00 93 1009.0
20260502100716 76 0.0 0.0 0.00 0.00 0.00 93 1009.0
20260502100140 76 0.0 0.0 0.00 0.00 0.00 93 1008.9
20260502091346 76 0.0 0.0 0.00 0.00 0.00 93 1008.3
20260502090829 76 0.0 0.0 0.00 0.00 0.00 93 1008.4
20260502090319 76 0.0 0.0 0.00 0.00 0.00 93 1008.4
20260502071235 77 0.0 0.0 0.00 0.00 0.00 93 1009.2
20260502070717 77 0.0 0.0 0.00 0.00 0.00 93 1009.2
20260502070148 77 0.0 0.0 0.00 0.00 0.00 93 1009.2
20260502065622 77 0.0 0.0 0.00 0.00 0.00 93 1009.3
20260502065314 77 0.0 0.0 0.00 0.00 0.00 93 1009.2
20260502064517 77 0.0 0.0 0.00 0.00 0.00 93 1009.2
20260502063951 77 0.0 0.0 0.00 0.00 0.00 93 1009.2
20260502063442 77 0.0 0.0 0.00 0.00 0.00 93 1009.1
20260502062920 77 0.0 0.0 0.00 0.00 0.00 93 1009.0
20260502062358 77 0.0 0.0 0.00 0.00 0.00 93 1008.9
20260502062310 77 0.0 0.0 0.00 0.00 0.00 93 1008.7
20260502061322 77 0.0 0.0 0.00 0.00 0.00 93 1008.6
20260502060750 77 0.0 0.0 0.00 0.00 0.00 93 1008.5
20260502060423 77 0.0 0.0 0.00 0.00 0.00 93 1008.5
20260502055652 77 0.0 0.0 0.00 0.00 0.00 93 1008.4
20260502055136 77 0.0 0.0 0.00 0.00 0.00 93 1008.6
20260502054630 78 0.0 0.0 0.00 0.00 0.00 93 1008.5
20260502054349 78 0.0 0.0 0.00 0.00 0.00 93 1008.5
20260502053543 78 0.0 0.0 0.00 0.00 0.00 93 1008.6
20260502053019 78 0.0 0.0 0.00 0.00 0.00 93 1008.8
20260502052524 78 0.0 0.0 0.00 0.00 0.00 93 1009.0
20260502052235 78 0.0 0.0 0.00 0.00 0.00 93 1009.3
20260502051455 78 0.0 0.0 0.00 0.00 0.00 93 1009.5
20260502050907 78 0.0 0.0 0.00 0.00 0.00 93 1009.6
20260502050400 78 0.0 0.0 0.00 0.00 0.00 93 1009.7
20260502045858 78 0.0 0.0 0.00 0.00 0.00 93 1009.9
20260502045333 78 0.0 0.0 0.00 0.00 0.00 93 1009.9
20260502044817 78 0.0 0.0 0.00 0.00 0.00 92 1009.9
20260502044318 78 0.0 0.0 0.00 0.00 0.00 92 1009.9
20260502043803 78 0.0 0.0 0.00 0.00 0.00 93 1010.1
20260502043528 78 0.0 0.0 0.00 0.00 0.00 92 1010.1
20260502043002 78 0.0 0.0 0.00 0.00 0.00 93 1010.3
20260502042236 78 0.0 0.0 0.00 0.00 0.00 92 1010.4
20260502041728 78 0.0 0.0 0.00 0.00 0.00 92 1010.4
20260502041442 78 0.0 0.0 0.00 0.00 0.00 92 1010.4
20260502040659 78 0.0 0.9 0.00 0.00 0.00 92 1010.4
20260502040054 78 134 0.0 0.9 0.00 0.00 0.00 92 1010.6
20260502035552 78 134 0.0 0.9 0.00 0.01 0.00 92 1010.7
20260502035050 78 133 0.0 0.9 0.00 0.01 0.00 92 1010.9
20260502034523 78 144 0.9 1.7 0.00 0.01 0.00 92 1010.8
20260502034004 78 169 0.9 1.7 0.00 0.01 0.00 92 1010.6
20260502033459 78 161 0.0 1.7 0.00 0.02 0.00 92 1010.5
20260502033002 78 144 0.9 3.5 0.00 0.02 0.00 92 1010.6
20260502032436 79 145 0.0 3.5 0.00 0.02 0.00 92 1010.6
20260502031928 79 144 0.0 0.9 0.00 0.02 0.00 92 1010.6
20260502031433 79 146 0.0 0.9 0.00 0.02 0.00 92 1010.5
20260502030920 79 144 0.0 0.9 0.00 0.02 0.00 92 1010.5
20260502030425 79 146 0.0 0.9 0.00 0.02 0.00 92 1010.4
20260502025857 79 169 0.0 0.9 0.00 0.02 0.00 92 1010.4
20260502025328 79 146 0.0 0.9 0.00 0.02 0.00 92 1010.4
20260502024830 79 161 0.0 0.9 0.00 0.02 0.00 92 1010.3
20260502024306 79 160 0.0 0.9 0.00 0.02 0.00 92 1010.3
20260502024026 79 159 0.0 0.9 0.00 0.02 0.00 91 1010.2
20260502023300 79 144 0.0 0.9 0.00 0.02 0.00 91 1010.0
20260502022728 79 159 0.0 0.9 0.00 0.03 0.00 91 1009.9
20260502022226 79 146 0.0 0.0 0.00 0.06 0.00 91 1009.9
20260502021730 79 142 0.0 0.9 0.00 0.09 0.00 91 1009.8
20260502021223 79 160 0.0 0.9 0.00 0.09 0.00 91 1009.7
20260502020723 79 144 0.0 0.0 0.00 0.09 0.00 91 1009.5
20260502020153 79 160 0.0 0.0 0.00 0.09 0.00 91 1009.5
20260502015650 79 144 0.0 0.0 0.00 0.09 0.00 91 1009.4
20260502015123 79 160 0.0 0.9 0.00 0.09 0.00 91 1009.3
20260502014556 80 142 0.0 1.7 0.00 0.09 0.00 91 1009.3